クリステンセン彗星

383P/Christensen (2019)

English version
Home page
Updated on September 11, 2022

---------------------------------------------------------------------

・ プロフィール

符号 383P/2019 M1
検出日 2019年6月25日
検出光度 19.9等
検出者 K. Sarneczky (Konkoly Observatory)

・ 軌道要素

Epoch 2022 Aug. 9.0 TT = JDT 2459800.5                                          
T 2019 Oct. 26.53336 TT                                 Rudenko                 
q   1.4203404            (2000.0)            P               Q                  
n   0.14756860     Peri.  133.75928     +0.94104285     +0.32327794             
a   3.5465553      Node   207.82939     -0.33759277     +0.91631032             
e   0.5995155      Incl.   12.32473     +0.02166742     +0.23636152             
P   6.68                                                                        
From 368 observations 2006 Aug. 23-2019 Nov. 15, mean residual 0".7.            

・ 光度変化

        m1 = 17.0 + 5 logΔ + 10.0 log r

---------------------------------------------------------------------

軌道要素はM.P.E.C. 2022-O116に掲載されたものです。
光度グラフはComet for Windowsで作成したものです。

---------------------------------------------------------------------

Copyright(C) Seiichi Yoshida (comet@aerith.net). All rights reserved.